TimeCDT,TemperatureF,Dew PointF,Humidity,Sea Level PressureIn,VisibilityMPH,Wind Direction,Wind SpeedMPH,Gust SpeedMPH,PrecipitationIn,Events,Conditions,WindDirDegrees,DateUTC
12:15 AM,39.2,28.4,65,29.99,10.0,SE,9.2,-,N/A,,Clear,140,2011-11-01 05:15:00
12:35 AM,41.0,28.4,61,29.99,10.0,SE,10.4,-,N/A,,Clear,140,2011-11-01 05:35:00
12:55 AM,39.2,28.4,65,29.99,10.0,SE,9.2,-,N/A,,Clear,140,2011-11-01 05:55:00
1:15 AM,39.2,28.4,65,29.98,10.0,SE,10.4,-,N/A,,Clear,140,2011-11-01 06:15:00
1:35 AM,39.2,28.4,65,29.97,10.0,SE,11.5,-,N/A,,Clear,140,2011-11-01 06:35:00
1:55 AM,39.2,28.4,65,29.97,10.0,SSE,10.4,-,N/A,,Clear,150,2011-11-01 06:55:00
2:15 AM,41.0,28.4,61,29.96,10.0,SSE,11.5,-,N/A,,Clear,150,2011-11-01 07:15:00
2:35 AM,41.0,28.4,61,29.96,10.0,SSE,11.5,-,N/A,,Clear,150,2011-11-01 07:35:00
2:55 AM,39.2,28.4,65,29.96,10.0,SSE,10.4,-,N/A,,Clear,150,2011-11-01 07:55:00
3:15 AM,39.2,28.4,65,29.95,10.0,SSE,10.4,-,N/A,,Clear,150,2011-11-01 08:15:00
3:35 AM,39.2,28.4,65,29.95,10.0,SE,9.2,-,N/A,,Clear,140,2011-11-01 08:35:00
3:55 AM,37.4,28.4,70,29.95,10.0,SE,10.4,-,N/A,,Clear,140,2011-11-01 08:55:00
4:15 AM,37.4,28.4,70,29.94,10.0,SE,10.4,-,N/A,,Clear,140,2011-11-01 09:15:00
4:35 AM,39.2,28.4,65,29.93,10.0,SE,10.4,-,N/A,,Clear,140,2011-11-01 09:35:00
4:55 AM,39.2,28.4,65,29.92,10.0,SE,11.5,-,N/A,,Clear,140,2011-11-01 09:55:00
5:15 AM,39.2,28.4,65,29.92,10.0,SE,12.7,-,N/A,,Clear,140,2011-11-01 10:15:00
5:35 AM,39.2,28.4,65,29.92,10.0,SE,11.5,-,N/A,,Clear,140,2011-11-01 10:35:00
5:55 AM,39.2,28.4,65,29.91,10.0,SE,11.5,-,N/A,,Clear,140,2011-11-01 10:55:00
6:15 AM,39.2,28.4,65,29.92,10.0,SE,9.2,-,N/A,,Clear,140,2011-11-01 11:15:00
6:35 AM,39.2,28.4,65,29.90,10.0,SE,10.4,-,N/A,,Clear,140,2011-11-01 11:35:00
6:55 AM,39.2,28.4,65,29.90,10.0,SE,10.4,-,N/A,,Clear,140,2011-11-01 11:55:00
7:15 AM,37.4,28.4,70,29.90,10.0,SE,10.4,-,N/A,,Clear,140,2011-11-01 12:15:00
7:35 AM,37.4,28.4,70,29.90,10.0,SSE,11.5,-,N/A,,Clear,150,2011-11-01 12:35:00
8:15 AM,39.2,28.4,65,29.90,10.0,SSE,11.5,-,N/A,,Clear,150,2011-11-01 13:15:00
8:35 AM,39.2,30.2,70,29.90,10.0,SSE,11.5,-,N/A,,Clear,160,2011-11-01 13:35:00
8:55 AM,42.8,30.2,61,29.91,10.0,SSE,12.7,-,N/A,,Clear,160,2011-11-01 13:55:00
9:15 AM,44.6,30.2,57,29.91,10.0,South,11.5,-,N/A,,Clear,170,2011-11-01 14:15:00
9:35 AM,46.4,32.0,57,29.91,10.0,South,13.8,-,N/A,,Clear,170,2011-11-01 14:35:00
9:55 AM,50.0,33.8,54,29.90,10.0,South,15.0,-,N/A,,Clear,180,2011-11-01 14:55:00
10:15 AM,51.8,33.8,50,29.90,10.0,South,12.7,-,N/A,,Clear,180,2011-11-01 15:15:00
10:35 AM,53.6,35.6,51,29.90,10.0,South,16.1,-,N/A,,Clear,180,2011-11-01 15:35:00
10:55 AM,55.4,35.6,47,29.90,10.0,South,13.8,20.7,N/A,,Clear,180,2011-11-01 15:55:00
11:15 AM,55.4,35.6,47,29.90,10.0,South,16.1,-,N/A,,Clear,190,2011-11-01 16:15:00
11:35 AM,59.0,37.4,45,29.89,10.0,South,15.0,-,N/A,,Clear,190,2011-11-01 16:35:00
11:55 AM,60.8,37.4,42,29.89,10.0,SSW,12.7,-,N/A,,Clear,210,2011-11-01 16:55:00
12:15 PM,62.6,37.4,39,29.88,10.0,South,15.0,18.4,N/A,,Clear,180,2011-11-01 17:15:00
12:35 PM,62.6,39.2,42,29.87,10.0,South,13.8,-,N/A,,Clear,180,2011-11-01 17:35:00
12:55 PM,64.4,39.2,40,29.87,10.0,South,13.8,-,N/A,,Clear,190,2011-11-01 17:55:00
1:15 PM,64.4,39.2,40,29.86,10.0,South,13.8,19.6,N/A,,Clear,180,2011-11-01 18:15:00
1:35 PM,66.2,39.2,37,29.86,10.0,SSW,12.7,20.7,N/A,,Clear,210,2011-11-01 18:35:00
1:55 PM,66.2,39.2,37,29.86,10.0,South,12.7,19.6,N/A,,Clear,190,2011-11-01 18:55:00
2:15 PM,66.2,39.2,37,29.85,10.0,South,13.8,-,N/A,,Clear,180,2011-11-01 19:15:00
2:35 PM,68.0,39.2,35,29.84,10.0,South,16.1,-,N/A,,Clear,190,2011-11-01 19:35:00
2:55 PM,68.0,39.2,35,29.84,10.0,SSW,11.5,17.3,N/A,,Clear,200,2011-11-01 19:55:00
3:15 PM,68.0,39.2,35,29.85,10.0,SSW,13.8,20.7,N/A,,Clear,200,2011-11-01 20:15:00
3:35 PM,68.0,39.2,35,29.85,10.0,SSW,11.5,19.6,N/A,,Clear,200,2011-11-01 20:35:00
3:55 PM,68.0,39.2,35,29.85,10.0,SSW,12.7,-,N/A,,Clear,210,2011-11-01 20:55:00
4:15 PM,69.8,41.0,35,29.86,10.0,SSW,11.5,-,N/A,,Clear,210,2011-11-01 21:15:00
4:35 PM,68.0,39.2,35,29.86,10.0,SW,11.5,-,N/A,,Clear,230,2011-11-01 21:35:00
4:55 PM,66.2,41.0,40,29.86,10.0,SW,8.1,-,N/A,,Clear,220,2011-11-01 21:55:00
5:15 PM,66.2,42.8,43,29.86,10.0,SW,6.9,-,N/A,,Clear,230,2011-11-01 22:15:00
5:35 PM,64.4,41.0,42,29.86,10.0,SW,3.5,-,N/A,,Clear,220,2011-11-01 22:35:00
5:55 PM,62.6,41.0,45,29.87,10.0,WSW,3.5,-,N/A,,Clear,250,2011-11-01 22:55:00
6:15 PM,60.8,41.0,48,29.88,10.0,Calm,Calm,-,N/A,,Clear,0,2011-11-01 23:15:00
6:35 PM,57.2,41.0,55,29.88,10.0,WSW,3.5,-,N/A,,Clear,250,2011-11-01 23:35:00
6:55 PM,55.4,35.6,47,29.90,10.0,NNW,12.7,17.3,N/A,,Clear,330,2011-11-01 23:55:00
7:15 PM,53.6,35.6,51,29.90,10.0,North,10.4,-,N/A,,Clear,360,2011-11-02 00:15:00
7:35 PM,53.6,35.6,51,29.91,10.0,North,10.4,-,N/A,,Clear,360,2011-11-02 00:35:00
7:55 PM,53.6,35.6,51,29.91,10.0,North,9.2,-,N/A,,Scattered Clouds,360,2011-11-02 00:55:00
8:15 PM,51.8,35.6,54,29.91,10.0,North,8.1,-,N/A,,Scattered Clouds,350,2011-11-02 01:15:00
8:35 PM,51.8,35.6,54,29.91,10.0,NNW,9.2,-,N/A,,Scattered Clouds,340,2011-11-02 01:35:00
8:55 PM,51.8,35.6,54,29.91,10.0,North,11.5,-,N/A,,Scattered Clouds,360,2011-11-02 01:55:00
9:15 PM,51.8,35.6,54,29.91,10.0,North,11.5,-,N/A,,Mostly Cloudy,360,2011-11-02 02:15:00
9:35 PM,51.8,35.6,54,29.92,10.0,North,10.4,-,N/A,,Overcast,10,2011-11-02 02:35:00
9:55 PM,51.8,35.6,54,29.93,10.0,NNE,10.4,-,N/A,,Overcast,20,2011-11-02 02:55:00
10:15 PM,51.8,35.6,54,29.92,10.0,NNE,10.4,-,N/A,,Mostly Cloudy,30,2011-11-02 03:15:00
10:35 PM,51.8,35.6,54,29.92,10.0,NNE,9.2,-,N/A,,Mostly Cloudy,30,2011-11-02 03:35:00
11:15 PM,50.0,35.6,58,29.93,10.0,NNW,3.5,-,N/A,,Mostly Cloudy,340,2011-11-02 04:15:00
11:35 PM,46.4,35.6,66,29.94,10.0,NW,8.1,-,N/A,,Scattered Clouds,320,2011-11-02 04:35:00
11:55 PM,46.4,35.6,66,29.93,10.0,NNW,10.4,-,N/A,,Scattered Clouds,330,2011-11-02 04:55:00